Theta_e
348 346 348 347 345 349 348 344 347 351 349 348 346 347 351 351 352 353 350 345 344 344 346 346 344 345 345 347 347 347 348 348 348 347 344 345 351 355 354 352 352 351
348 348 348 349 348 350 349 346 350 351 350 351 350 349 352 351 351 352 349 346 344 343 346 345 344 344 344 344 342 342 345 347 350 351 348 346 351 353 352 351 351 350
350 349 348 351 350 348 349 349 352 351 348 351 351 350 351 350 350 349 348 347 344 343 346 345 345 344 344 344 342 341 344 344 347 352 349 346 349 352 352 352 352 352
349 348 349 353 351 349 352 353 353 353 351 352 353 351 350 351 350 348 346 347 346 345 347 345 345 345 343 344 344 343 344 345 346 348 347 345 346 349 353 354 353 354
347 350 352 354 351 350 354 355 354 353 353 354 354 352 351 351 352 350 347 346 346 347 347 345 346 346 343 343 344 344 345 348 348 347 345 345 345 346 352 354 354 355
345 350 354 354 351 351 353 354 353 353 354 355 356 354 353 351 353 354 350 346 346 347 349 348 346 346 345 343 343 344 346 351 354 353 350 348 346 348 353 356 357 356
346 348 353 355 353 351 353 355 355 354 354 355 355 355 355 352 352 355 353 350 349 350 353 354 351 349 349 347 344 343 345 349 353 354 352 350 348 347 351 355 356 355
352 350 350 355 356 354 354 355 355 355 354 354 353 354 356 354 353 354 354 353 354 353 354 356 355 353 354 353 348 344 344 346 350 351 349 348 347 345 345 348 351 350
355 353 349 352 356 356 355 354 355 356 355 354 355 354 354 354 354 354 354 354 354 355 354 355 355 353 353 354 353 349 345 347 352 353 351 349 346 344 345 347 348 350
354 354 351 351 353 354 354 353 354 355 354 354 355 355 354 355 355 355 355 354 353 355 355 354 355 351 347 351 356 354 349 347 350 353 354 352 348 348 352 354 354 355
353 353 353 352 352 353 353 353 353 353 353 354 354 354 354 355 355 355 356 354 351 354 355 352 351 350 346 350 356 356 353 351 351 353 353 351 349 349 353 356 355 355
351 351 351 351 351 351 351 351 352 352 353 353 353 354 354 354 354 354 356 355 350 352 355 350 347 347 347 349 354 357 357 354 354 354 353 350 350 350 352 354 353 352
352 351 350 350 350 349 349 349 350 350 351 352 352 352 352 352 354 354 354 355 353 353 356 354 349 349 349 349 350 355 356 353 353 355 355 353 353 353 354 355 355 352
351 351 350 348 348 348 348 348 348 348 349 350 350 350 351 351 353 353 354 355 354 353 355 356 353 352 352 351 348 351 353 353 354 356 356 356 356 355 355 355 354 353
348 349 351 348 347 347 347 346 347 347 347 347 347 348 349 349 349 349 351 353 353 353 355 355 355 355 354 352 350 350 351 354 356 355 355 356 356 355 355 354 353 352
350 349 350 349 348 348 348 347 346 345 346 346 346 347 347 347 347 347 347 348 349 351 352 353 354 355 354 353 352 351 350 350 351 352 354 355 355 355 355 353 352 350
352 353 352 352 353 353 351 350 349 348 348 347 346 346 346 346 346 346 346 346 346 346 348 350 352 351 351 351 350 349 348 346 346 348 351 353 354 354 353 353 352 351
351 353 354 355 355 353 352 352 350 349 350 349 348 348 347 347 348 349 348 347 347 345 344 347 348 348 349 349 347 346 345 345 344 346 349 350 351 351 350 350 351 351
350 347 350 355 355 352 351 350 347 347 349 349 349 349 349 349 350 350 349 348 348 347 346 345 345 346 347 347 346 346 346 347 347 346 346 347 349 349 348 348 349 351
350 345 345 350 351 350 350 348 346 346 346 346 347 348 349 350 351 350 349 347 348 348 347 346 345 344 345 345 346 345 345 346 347 347 346 345 345 348 349 348 347 349
351 350 348 347 349 349 349 348 348 347 346 346 346 346 347 349 349 349 349 349 350 349 348 347 346 345 345 346 346 346 345 345 346 346 346 345 345 347 348 347 346 346
351 350 347 347 348 348 349 350 351 350 349 349 349 347 348 349 348 347 347 348 350 351 349 349 348 347 347 347 348 348 346 346 346 346 347 347 348 347 345 346 347 346
348 347 345 347 347 348 349 349 350 349 349 350 349 349 349 349 349 349 348 348 351 352 351 351 350 349 349 349 350 351 350 348 348 348 348 349 349 347 345 345 346 345
347 346 346 346 345 345 346 346 346 346 348 349 350 350 350 350 350 351 351 351 351 352 351 350 350 351 351 351 352 353 352 351 350 350 350 350 351 350 349 347 346 346
346 346 347 346 345 346 346 347 346 346 347 349 349 349 349 349 349 349 349 349 349 350 350 350 350 351 351 352 353 352 352 352 351 350 350 350 351 352 351 350 349 347
343 343 344 344 345 345 345 345 346 345 346 347 346 345 345 344 343 342 342 344 345 346 347 347 347 348 349 350 351 351 350 349 349 350 350 351 352 351 351 351 351 349
Wind_Speed
13 12 12 12 13 13 13 13 13 11 11 11 11 11 11 11 11 11 11 9 9 9 8 8 6 6 7 8 7 5 5 5 5 4 4 5 6 4 3 3 2 2
13 13 12 12 12 13 12 12 12 11 12 11 11 11 11 12 12 13 11 10 10 9 8 8 8 7 7 7 7 6 5 5 5 4 4 5 6 6 4 3 2 2
13 13 13 12 12 12 11 11 11 11 11 11 10 11 11 12 12 12 12 10 9 9 9 8 8 8 8 7 7 7 6 6 6 6 5 5 6 6 5 3 3 3
14 13 13 12 12 12 11 11 11 11 11 10 10 10 10 11 11 11 11 10 10 10 9 9 9 8 9 8 7 8 7 6 8 7 5 5 5 5 6 5 4 4
15 13 13 12 12 13 13 12 12 11 11 11 10 9 10 11 11 11 11 11 10 10 9 10 10 9 9 9 8 8 7 5 6 6 5 5 6 5 5 4 5 7
16 15 14 13 11 12 13 11 10 11 11 12 11 9 10 11 11 10 10 10 10 10 10 10 10 10 9 9 9 9 8 6 6 8 7 6 7 6 5 4 6 8
16 15 15 14 11 11 12 11 11 12 12 12 12 11 10 11 11 12 11 10 10 9 9 9 9 9 9 9 9 9 9 8 9 10 8 7 7 7 7 7 8 9
15 16 16 15 13 11 12 13 13 12 11 11 10 11 12 11 11 11 11 10 10 9 9 10 10 9 9 10 9 9 10 9 9 9 8 7 8 8 8 8 8 9
15 15 15 16 15 14 13 13 13 12 12 11 9 10 12 11 10 10 10 10 11 11 11 11 11 10 10 10 9 9 9 9 9 10 9 8 7 8 7 7 7 8
16 15 14 15 15 14 13 12 12 12 13 12 12 11 10 11 12 11 11 11 11 12 12 12 11 11 10 10 9 9 9 8 10 12 10 8 8 8 7 7 7 7
16 15 15 15 15 14 12 12 13 13 12 12 12 12 11 11 12 12 12 13 12 12 13 13 12 11 10 10 10 10 10 8 9 10 10 10 10 9 8 8 9 8
16 16 16 15 15 14 13 13 13 12 12 12 12 12 12 12 11 11 12 12 11 11 12 12 12 11 10 10 11 10 10 9 9 10 10 11 10 9 8 9 10 9
16 15 15 15 15 15 14 12 12 12 12 11 11 12 12 11 11 11 12 11 9 10 12 11 10 11 11 11 11 11 11 11 10 10 10 10 10 8 8 9 10 9
18 15 15 15 15 15 15 13 12 12 12 11 11 11 10 11 11 11 11 11 11 10 11 11 11 11 11 11 11 11 12 11 11 10 10 11 10 9 8 9 10 10
18 17 15 15 15 15 15 15 13 12 12 12 12 10 10 10 11 11 10 11 11 10 11 12 13 12 12 11 11 11 12 12 12 12 11 11 11 11 10 10 10 11
16 17 17 17 16 16 15 15 14 11 11 11 11 11 11 11 11 11 11 10 11 10 10 12 14 14 13 12 11 11 10 11 12 13 12 10 11 12 12 11 11 11
13 15 18 18 17 16 15 15 15 12 11 12 13 13 13 12 11 11 10 10 11 12 11 12 14 15 13 12 12 12 11 11 11 11 11 10 11 13 12 12 13 12
13 13 13 13 15 16 16 17 18 17 16 16 16 16 16 15 13 13 13 13 12 11 10 11 14 15 14 14 14 14 13 13 13 11 10 9 11 13 13 13 13 13
15 18 15 11 12 14 14 15 17 17 17 17 14 14 15 16 15 15 17 17 15 15 14 13 13 14 15 16 16 16 16 15 15 15 14 12 11 11 13 14 13 14
18 21 20 15 12 12 13 17 18 17 17 17 15 13 12 14 16 17 18 18 18 18 19 19 17 16 16 17 18 19 19 17 17 17 17 16 13 11 12 14 15 17
18 17 18 17 15 14 15 17 17 17 18 18 17 16 14 14 16 17 17 16 16 18 21 22 21 19 17 17 18 19 20 20 20 20 20 19 16 14 16 17 18 19
16 15 16 15 13 12 12 14 14 15 17 17 17 17 17 17 17 19 20 18 16 18 22 23 23 22 20 20 20 20 20 21 21 21 21 19 16 17 20 19 19 19
16 16 16 16 15 13 13 14 14 14 15 15 16 17 18 18 18 19 21 21 18 18 21 23 24 22 21 21 21 21 21 22 22 21 20 18 17 19 21 21 21 21
16 16 16 17 17 15 15 16 17 16 15 14 14 14 13 15 16 16 17 18 18 18 20 23 24 22 21 20 19 19 19 20 20 20 18 17 17 17 18 20 21 21
14 14 14 14 13 12 12 14 15 15 14 13 13 11 10 11 11 10 11 12 13 15 19 20 20 19 20 20 19 18 17 18 19 18 17 17 16 16 17 20 21 21
11 10 10 10 10 10 10 10 10 11 12 11 11 9 8 7 6 5 5 5 6 9 13 15 15 14 14 15 17 16 16 17 16 15 14 15 15 15 16 17 19 21
Wind_Direction
181 181 179 180 178 179 186 186 185 189 189 191 195 192 194 191 187 199 206 199 199 203 201 203 204 194 189 192 195 194 186 174 164 163 166 163 146 132 169 182 179 197
179 181 181 179 180 181 186 186 186 191 191 189 190 191 196 195 193 201 205 200 200 204 205 204 202 198 197 199 198 200 195 178 168 172 189 190 161 155 180 173 168 188
181 183 181 180 183 185 185 184 189 195 190 188 191 194 200 201 200 205 205 202 203 204 206 205 203 202 203 205 203 202 199 187 189 194 198 201 182 173 186 174 182 206
186 186 182 184 187 185 182 185 195 195 186 192 200 197 199 201 203 208 207 205 205 206 207 205 204 205 206 207 205 204 205 202 205 205 201 209 207 199 196 191 197 208
188 184 182 190 189 182 184 190 195 192 186 193 203 200 196 197 202 210 210 208 209 210 210 208 206 207 211 212 208 205 205 214 228 230 224 223 226 218 207 212 220 214
190 184 185 193 191 184 188 191 190 190 190 193 198 204 203 199 202 207 210 210 208 209 210 211 212 210 213 217 214 211 206 205 234 250 252 248 240 226 213 226 238 229
195 189 188 191 194 192 187 189 194 195 198 196 194 200 206 208 205 200 208 212 206 210 212 215 220 213 215 223 218 218 216 208 222 238 249 255 248 236 224 226 238 243
195 196 193 189 196 200 193 195 199 196 202 203 197 199 203 210 210 202 209 208 199 210 215 217 228 220 215 227 225 223 224 220 231 245 250 253 253 253 246 238 245 253
192 201 199 191 195 203 201 200 198 196 202 203 201 205 203 203 206 207 216 209 197 209 213 213 228 229 219 224 230 234 229 217 226 241 251 258 256 256 258 257 258 261
193 199 202 198 199 204 203 199 200 205 207 201 201 211 209 202 201 205 217 217 205 208 213 212 223 234 226 219 227 242 241 226 223 230 242 257 259 254 254 258 259 261
196 196 201 203 203 206 208 204 204 210 212 205 204 211 209 205 209 210 217 224 216 213 218 217 221 232 230 218 224 241 249 245 236 237 245 254 259 258 252 251 254 254
200 201 201 204 206 207 209 212 209 210 217 214 207 212 214 212 215 215 222 235 229 221 229 231 228 234 234 222 220 230 243 252 251 249 254 256 257 260 260 263 264 258
198 204 205 205 209 208 208 213 214 212 218 217 210 214 220 223 220 214 224 243 242 227 233 241 238 238 242 237 229 225 233 247 256 257 261 263 263 263 260 263 270 272
196 201 209 209 211 213 211 210 213 215 219 224 227 223 220 226 232 223 217 232 244 236 232 241 246 243 243 245 242 235 232 240 251 255 256 260 265 268 265 265 271 275
204 200 207 211 212 219 218 212 212 217 220 226 234 233 224 226 240 244 232 231 241 239 231 239 247 247 247 248 248 243 235 235 242 248 252 256 263 267 268 269 270 270
210 206 210 211 210 214 217 213 212 218 225 227 228 231 233 233 237 247 252 252 254 252 250 250 248 246 247 249 252 254 250 246 246 247 249 253 259 261 262 266 270 272
215 214 212 210 207 208 210 206 204 210 219 221 219 219 226 233 236 238 240 246 255 263 267 259 250 251 252 250 257 265 267 267 263 255 255 263 269 270 269 269 269 270
227 230 220 212 212 215 215 209 206 210 214 215 217 217 217 222 231 237 234 233 240 249 254 249 244 247 249 249 256 263 265 269 268 261 263 274 282 286 289 287 284 282
223 231 226 218 212 212 220 222 219 221 223 224 228 228 223 220 221 230 235 236 237 239 243 249 250 249 247 246 251 256 257 261 262 261 264 264 263 280 296 297 292 287
220 227 229 234 230 222 229 234 233 232 233 236 240 239 236 230 224 226 234 239 242 245 246 250 254 256 255 251 250 253 254 255 258 263 270 269 264 270 283 282 275 274
215 224 231 237 239 236 239 242 240 239 240 243 244 243 244 242 234 230 233 237 241 245 246 249 253 256 257 254 251 251 252 255 259 264 270 275 276 270 266 265 266 270
211 224 231 233 237 238 238 242 242 240 240 241 245 245 244 245 242 236 236 239 240 242 245 247 250 253 254 254 253 252 251 254 258 262 268 274 274 265 260 261 265 269
214 224 228 231 236 235 231 236 239 240 241 241 245 245 241 239 240 238 239 243 244 243 243 243 245 248 250 251 250 250 250 253 256 261 265 266 263 261 261 262 264 269
217 221 225 229 233 233 232 236 239 242 246 245 245 248 245 241 241 242 245 248 248 245 243 243 244 244 246 249 252 252 252 253 256 258 260 259 259 264 265 263 263 267
206 209 216 222 224 219 219 227 234 238 241 241 241 245 249 247 242 242 249 253 251 246 242 243 246 246 245 247 251 257 259 259 258 258 258 257 259 263 265 264 265 267
182 178 183 193 194 187 187 198 214 221 223 227 229 232 240 240 223 224 248 248 239 238 236 239 244 249 250 248 250 257 264 265 264 262 259 258 260 264 269 271 270 267